Lewistown, MT

12:30 PM MST on February 25, 2017 (GMT -0700)
Lewistown Municipal

Weather History for KLWT - November, 2012

Change the Weather History Date:

Monday, November 26, 2012

  Actual Average Record
Temperature  
Mean Temperature 24 °F 28 °F  
Max Temperature 35 °F 38 °F 66 °F (1914)
Min Temperature 12 °F 17 °F -23 °F (1985)
Degree Days  
Heating Degree Days 41 37  
Month to date heating degree days 791 837  
Since 1 July heating degree days 1813 1975  
Cooling Degree Days 0 0  
Month to date cooling degree days 0 0  
Year to date cooling degree days 314 210  
Moisture  
Dew Point 15 °F    
Average Humidity 74    
Maximum Humidity 100    
Minimum Humidity 47    
Precipitation  
Precipitation 0.00 in 0.02 in 0.60 in (1897)
Month to date precipitation 0.43 0.62  
Year to date precipitation 14.82 16.10  
Snow  
Snow 0.00 in - - ()
Snow Depth T in    
Sea Level Pressure  
Sea Level Pressure 30.25 in    
Wind  
Wind Speed 4 mph (SE)    
Max Wind Speed 9 mph    
Max Gust Speed 10 mph    
Visibility 8 miles    
Events Fog    
T = Trace of Precipitation, MM = Missing Value Source: NWS Daily Summary

Daily Weather History Graph

Daily Weather History Graph

Search for Another Location

Airport or City:

Trip Planner

Search our weather history database for the weather conditions in past years. The results will help you decide how hot, cold, wet, or windy it might be!

Date:

Astronomy

Nov. 26, 2012 Rise Set
Actual Time 7:37 AM MST 4:32 PM MST
Civil Twilight 7:03 AM MST 5:07 PM MST
Nautical Twilight 6:25 AM MST 5:45 PM MST
Astronomical Twilight 5:48 AM MST 6:21 PM MST
Moon 3:30 PM MST (11/26) 5:46 AM MST (11/26)
Length of Visible Light 10h 04m
Length of Day
8h 55m
Waxing Gibbous, 97% of the Moon is Illuminated
Nov 26
Waxing Gibbous
Nov 28
Full
Dec 6
Last Quarter
Dec 13
New
Dec 19
First Quarter

Hourly Weather History & Observations

Time (MST) Temp. Windchill Dew Point Humidity Pressure Visibility Wind Dir Wind Speed Gust Speed Precip Events Conditions
12:17 AM 23.0 °F 18.4 °F 21.2 °F 93% 30.19 in 0.5 mi South 3.5 mph - N/A Fog Light Freezing Fog
12:31 AM 21.2 °F - 19.4 °F 93% 30.19 in 0.2 mi Calm Calm - N/A Fog Light Freezing Fog
12:49 AM 19.4 °F - 19.4 °F 100% 30.19 in 0.2 mi Calm Calm - N/A Fog Light Freezing Fog
12:54 AM 18.0 °F - 17.1 °F 96% 30.32 in 0.5 mi Calm Calm - N/A Fog Light Freezing Fog
1:08 AM 17.6 °F 10.7 °F 15.8 °F 93% 30.19 in 2.0 mi SSW 4.6 mph - N/A   Mostly Cloudy
1:10 AM 17.6 °F 10.7 °F 15.8 °F 93% 30.19 in 6.0 mi SSW 4.6 mph - N/A   Scattered Clouds
1:54 AM 15.1 °F - 12.9 °F 91% 30.34 in 10.0 mi Calm Calm - N/A   Clear
2:54 AM 17.1 °F - 15.1 °F 92% 30.34 in 10.0 mi Calm Calm - N/A   Scattered Clouds
3:54 AM 12.9 °F 5.2 °F 10.9 °F 92% 30.35 in 10.0 mi East 4.6 mph - N/A   Clear
4:11 AM 12.2 °F 6.1 °F 12.2 °F 100% 30.20 in 3.0 mi ESE 3.5 mph - N/A   Scattered Clouds
4:14 AM 14.0 °F 6.5 °F 12.2 °F 93% 30.20 in 2.0 mi ESE 4.6 mph - N/A   Mostly Cloudy
4:20 AM 14.0 °F 6.5 °F 12.2 °F 93% 30.20 in 3.0 mi ESE 4.6 mph - N/A   Scattered Clouds
4:34 AM 14.0 °F 5.1 °F 12.2 °F 93% 30.20 in 9.0 mi SE 5.8 mph - N/A   Mostly Cloudy
4:41 AM 12.2 °F 4.3 °F 10.4 °F 92% 30.20 in 10.0 mi SE 4.6 mph - N/A   Partly Cloudy
4:54 AM 12.9 °F 5.2 °F 12.0 °F 96% 30.36 in 10.0 mi SE 4.6 mph - N/A   Partly Cloudy
5:54 AM 14.0 °F 5.1 °F 10.9 °F 88% 30.35 in 10.0 mi SE 5.8 mph - N/A   Clear
6:54 AM 12.0 °F 4.1 °F 9.0 °F 88% 30.34 in 10.0 mi SE 4.6 mph - N/A   Clear
7:54 AM 12.0 °F 2.7 °F 9.0 °F 88% 30.34 in 10.0 mi SE 5.8 mph - N/A   Clear
8:54 AM 17.1 °F 6.6 °F 14.0 °F 88% 30.32 in 10.0 mi ESE 8.1 mph - N/A   Clear
9:54 AM 21.9 °F 14.5 °F 17.1 °F 82% 30.30 in 10.0 mi ESE 5.8 mph - N/A   Clear
10:54 AM 28.0 °F 24.2 °F 19.0 °F 69% 30.28 in 10.0 mi East 3.5 mph - N/A   Clear
11:54 AM 30.9 °F - 19.0 °F 61% 30.25 in 10.0 mi Calm Calm - N/A   Clear
12:54 PM 33.1 °F - 16.0 °F 50% 30.23 in 10.0 mi Calm Calm - N/A   Clear
1:54 PM 34.0 °F 29.8 °F 19.9 °F 56% 30.22 in 10.0 mi Variable 4.6 mph - N/A   Clear
2:54 PM 35.1 °F - 21.0 °F 57% 30.21 in 10.0 mi Calm Calm - N/A   Clear
3:54 PM 30.9 °F - 19.0 °F 61% 30.22 in 10.0 mi Calm Calm - N/A   Clear
4:54 PM 27.0 °F - 19.0 °F 72% 30.24 in 10.0 mi Calm Calm - N/A   Clear
5:54 PM 24.1 °F 17.0 °F 19.0 °F 81% 30.24 in 10.0 mi South 5.8 mph - N/A   Clear
6:54 PM 25.0 °F 18.1 °F 17.1 °F 72% 30.23 in 10.0 mi South 5.8 mph - N/A   Mostly Cloudy
7:54 PM 21.9 °F 15.7 °F 17.1 °F 82% 30.23 in 10.0 mi East 4.6 mph - N/A   Overcast
8:54 PM 19.9 °F 14.9 °F 15.1 °F 81% 30.21 in 10.0 mi ESE 3.5 mph - N/A   Clear
10:54 PM 16.0 °F 7.4 °F 9.0 °F 74% 30.17 in 10.0 mi SE 5.8 mph - N/A   Clear
11:54 PM 16.0 °F 6.3 °F 9.0 °F 74% 30.16 in 10.0 mi SE 6.9 mph - N/A   Clear